Year,Month,Day,Hour,Minute,Value (Times are PST for temperature in C)
2019,07,05,00,00,21.60
2019,07,05,00,01,21.60
2019,07,05,00,02,21.50
2019,07,05,00,03,21.50
2019,07,05,00,04,21.40
2019,07,05,00,05,21.40
2019,07,05,00,06,21.40
2019,07,05,00,07,21.30
2019,07,05,00,08,21.30
2019,07,05,00,09,21.30
2019,07,05,00,10,21.20
2019,07,05,00,11,21.20
2019,07,05,00,12,21.20
2019,07,05,00,13,21.10
2019,07,05,00,14,21.10
2019,07,05,00,15,21.10
2019,07,05,00,16,21.00
2019,07,05,00,17,21.00
2019,07,05,00,18,20.90
2019,07,05,00,19,20.90
2019,07,05,00,20,20.90
2019,07,05,00,21,20.80
2019,07,05,00,22,20.80
2019,07,05,00,23,20.80
2019,07,05,00,24,20.70
2019,07,05,00,25,20.70
2019,07,05,00,26,20.70
2019,07,05,00,27,20.60
2019,07,05,00,28,20.60
2019,07,05,00,29,20.50
2019,07,05,00,30,20.50
2019,07,05,00,31,20.40
2019,07,05,00,32,20.40
2019,07,05,00,33,20.30
2019,07,05,00,34,20.30
2019,07,05,00,35,20.20
2019,07,05,00,36,20.20
2019,07,05,00,37,20.10
2019,07,05,00,38,20.00
2019,07,05,00,39,20.00
2019,07,05,00,40,19.90
2019,07,05,00,41,19.90
2019,07,05,00,42,19.80
2019,07,05,00,43,19.80
2019,07,05,00,44,19.80
2019,07,05,00,45,19.70
2019,07,05,00,46,19.70
2019,07,05,00,47,19.70
2019,07,05,00,48,19.60
2019,07,05,00,49,19.60
2019,07,05,00,50,19.60
2019,07,05,00,51,19.50
2019,07,05,00,52,19.50
2019,07,05,00,53,19.40
2019,07,05,00,54,19.40
2019,07,05,00,55,19.40
2019,07,05,00,56,19.40
2019,07,05,00,57,19.30
2019,07,05,00,58,19.30
2019,07,05,00,59,19.30
2019,07,05,01,00,19.30
2019,07,05,01,01,19.20
2019,07,05,01,02,19.20
2019,07,05,01,03,19.20
2019,07,05,01,04,19.20
2019,07,05,01,05,19.20
2019,07,05,01,06,19.20
2019,07,05,01,07,19.20
2019,07,05,01,08,19.10
2019,07,05,01,09,19.10
2019,07,05,01,10,19.10
2019,07,05,01,11,19.10
2019,07,05,01,12,19.10
2019,07,05,01,13,19.10
2019,07,05,01,14,19.00
2019,07,05,01,15,19.00
2019,07,05,01,16,18.90
2019,07,05,01,17,18.90
2019,07,05,01,18,18.90
2019,07,05,01,19,18.90
2019,07,05,01,20,18.80
2019,07,05,01,21,18.80
2019,07,05,01,22,18.80
2019,07,05,01,23,18.80
2019,07,05,01,24,18.70
2019,07,05,01,25,18.70
2019,07,05,01,26,18.70
2019,07,05,01,27,18.60
2019,07,05,01,28,18.60
2019,07,05,01,29,18.60
2019,07,05,01,30,18.50
2019,07,05,01,31,18.50
2019,07,05,01,32,18.40
2019,07,05,01,33,18.40
2019,07,05,01,34,18.40
2019,07,05,01,35,18.30
2019,07,05,01,36,18.30
2019,07,05,01,37,18.30
2019,07,05,01,38,18.30
2019,07,05,01,39,18.20
2019,07,05,01,40,18.20
2019,07,05,01,41,18.20
2019,07,05,01,42,18.10
2019,07,05,01,43,18.10
2019,07,05,01,44,18.10
2019,07,05,01,45,18.10
2019,07,05,01,46,18.00
2019,07,05,01,47,18.00
2019,07,05,01,48,17.90
2019,07,05,01,49,17.90
2019,07,05,01,50,17.90
2019,07,05,01,51,17.80
2019,07,05,01,52,17.80
2019,07,05,01,53,17.80
2019,07,05,01,54,17.80
2019,07,05,01,55,17.70
2019,07,05,01,56,17.70
2019,07,05,01,57,17.70
2019,07,05,01,58,17.60
2019,07,05,01,59,17.60
2019,07,05,02,00,17.50
2019,07,05,02,01,17.50
2019,07,05,02,02,17.40
2019,07,05,02,03,17.40
2019,07,05,02,04,17.40
2019,07,05,02,05,17.30
2019,07,05,02,06,17.30
2019,07,05,02,07,17.30
2019,07,05,02,08,17.20
2019,07,05,02,09,17.20
2019,07,05,02,10,17.10
2019,07,05,02,11,17.10
2019,07,05,02,12,17.10
2019,07,05,02,13,17.00
2019,07,05,02,14,17.00
2019,07,05,02,15,16.90
2019,07,05,02,16,16.80
2019,07,05,02,17,16.80
2019,07,05,02,18,16.80
2019,07,05,02,19,16.70
2019,07,05,02,20,16.70
2019,07,05,02,21,16.70
2019,07,05,02,22,16.60
2019,07,05,02,23,16.60
2019,07,05,02,24,16.60
2019,07,05,02,25,16.50
2019,07,05,02,26,16.50
2019,07,05,02,27,16.40
2019,07,05,02,28,16.40
2019,07,05,02,29,16.30
2019,07,05,02,30,16.30
2019,07,05,02,31,16.30
2019,07,05,02,32,16.20
2019,07,05,02,33,16.20
2019,07,05,02,34,16.20
2019,07,05,02,35,16.10
2019,07,05,02,36,16.10
2019,07,05,02,37,16.10
2019,07,05,02,38,16.10
2019,07,05,02,39,16.00
2019,07,05,02,40,16.00
2019,07,05,02,41,16.00
2019,07,05,02,42,15.90
2019,07,05,02,43,15.90
2019,07,05,02,44,15.90
2019,07,05,02,45,15.90
2019,07,05,02,46,15.80
2019,07,05,02,47,15.80
2019,07,05,02,48,15.80
2019,07,05,02,49,15.80
2019,07,05,02,50,15.80
2019,07,05,02,51,15.70
2019,07,05,02,52,15.70
2019,07,05,02,53,15.70
2019,07,05,02,54,15.60
2019,07,05,02,55,15.60
2019,07,05,02,56,15.60
2019,07,05,02,57,15.60
2019,07,05,02,58,15.50
2019,07,05,02,59,15.50
2019,07,05,03,00,15.50
2019,07,05,03,01,15.40
2019,07,05,03,02,15.40
2019,07,05,03,03,15.40
2019,07,05,03,04,15.40
2019,07,05,03,05,15.30
2019,07,05,03,06,15.30
2019,07,05,03,07,15.30
2019,07,05,03,08,15.20
2019,07,05,03,09,15.20
2019,07,05,03,10,15.20
2019,07,05,03,11,15.20
2019,07,05,03,12,15.10
2019,07,05,03,13,15.10
2019,07,05,03,14,15.10
2019,07,05,03,15,15.00
2019,07,05,03,16,15.00
2019,07,05,03,17,14.90
2019,07,05,03,18,14.90
2019,07,05,03,19,14.80
2019,07,05,03,20,14.80
2019,07,05,03,21,14.80
2019,07,05,03,22,14.80
2019,07,05,03,23,14.80
2019,07,05,03,24,14.70
2019,07,05,03,25,14.70
2019,07,05,03,26,14.70
2019,07,05,03,27,14.70
2019,07,05,03,28,14.70
2019,07,05,03,29,14.70
2019,07,05,03,30,14.60
2019,07,05,03,31,14.60
2019,07,05,03,32,14.60
2019,07,05,03,33,14.60
2019,07,05,03,34,14.60
2019,07,05,03,35,14.60
2019,07,05,03,36,14.50
2019,07,05,03,37,14.50
2019,07,05,03,38,14.50
2019,07,05,03,39,14.50
2019,07,05,03,40,14.50
2019,07,05,03,41,14.40
2019,07,05,03,42,14.40
2019,07,05,03,43,14.40
2019,07,05,03,44,14.40
2019,07,05,03,45,14.30
2019,07,05,03,46,14.30
2019,07,05,03,47,14.30
2019,07,05,03,48,14.30
2019,07,05,03,49,14.30
2019,07,05,03,50,14.20
2019,07,05,03,51,14.20
2019,07,05,03,52,14.20
2019,07,05,03,53,14.20
2019,07,05,03,54,14.20
2019,07,05,03,55,14.10
2019,07,05,03,56,14.10
2019,07,05,03,57,14.10
2019,07,05,03,58,14.10
2019,07,05,03,59,14.10
2019,07,05,04,00,14.00
2019,07,05,04,01,14.00
2019,07,05,04,02,14.00
2019,07,05,04,03,13.90
2019,07,05,04,04,13.90
2019,07,05,04,05,13.90
2019,07,05,04,06,13.80
2019,07,05,04,07,13.80
2019,07,05,04,08,13.80
2019,07,05,04,09,13.80
2019,07,05,04,10,13.80
2019,07,05,04,11,13.70
2019,07,05,04,12,13.70
2019,07,05,04,13,13.70
2019,07,05,04,14,13.70
2019,07,05,04,15,13.60
2019,07,05,04,16,13.60
2019,07,05,04,17,13.60
2019,07,05,04,18,13.60
2019,07,05,04,19,13.60
2019,07,05,04,20,13.60
2019,07,05,04,21,13.60
2019,07,05,04,22,13.60
2019,07,05,04,23,13.50
2019,07,05,04,24,13.50
2019,07,05,04,25,13.50
2019,07,05,04,26,13.50
2019,07,05,04,27,13.50
2019,07,05,04,28,13.50
2019,07,05,04,29,13.40
2019,07,05,04,30,13.40
2019,07,05,04,31,13.40
2019,07,05,04,32,13.40
2019,07,05,04,33,13.40
2019,07,05,04,34,13.30
2019,07,05,04,35,13.30
2019,07,05,04,36,13.30
2019,07,05,04,37,13.30
2019,07,05,04,38,13.30
2019,07,05,04,39,13.30
2019,07,05,04,40,13.30
2019,07,05,04,41,13.30
2019,07,05,04,42,13.20
2019,07,05,04,43,13.20
2019,07,05,04,44,13.20
2019,07,05,04,45,13.20
2019,07,05,04,46,13.20
2019,07,05,04,47,13.20
2019,07,05,04,48,13.20
2019,07,05,04,49,13.20
2019,07,05,04,50,13.10
2019,07,05,04,51,13.10
2019,07,05,04,52,13.10
2019,07,05,04,53,13.10
2019,07,05,04,54,13.10
2019,07,05,04,55,13.10
2019,07,05,04,56,13.10
2019,07,05,04,57,13.10
2019,07,05,04,58,13.00
2019,07,05,04,59,13.00
2019,07,05,05,00,13.00
2019,07,05,05,01,13.00
2019,07,05,05,02,13.00
2019,07,05,05,03,13.00
2019,07,05,05,04,13.00
2019,07,05,05,05,13.00
2019,07,05,05,06,13.00
2019,07,05,05,07,13.00
2019,07,05,05,08,13.00
2019,07,05,05,09,13.00
2019,07,05,05,10,13.00
2019,07,05,05,11,13.00
2019,07,05,05,12,13.00
2019,07,05,05,13,13.00
2019,07,05,05,14,13.00
2019,07,05,05,15,13.00
2019,07,05,05,16,13.00
2019,07,05,05,17,13.00
2019,07,05,05,18,13.00
2019,07,05,05,19,13.00
2019,07,05,05,20,12.90
2019,07,05,05,21,12.90
2019,07,05,05,22,13.00
2019,07,05,05,23,13.00
2019,07,05,05,24,13.00
2019,07,05,05,25,13.00
2019,07,05,05,26,13.00
2019,07,05,05,27,13.00
2019,07,05,05,28,13.00
2019,07,05,05,29,13.00
2019,07,05,05,30,12.90
2019,07,05,05,31,12.90
2019,07,05,05,32,12.90
2019,07,05,05,33,12.90
2019,07,05,05,34,12.90
2019,07,05,05,35,12.90
2019,07,05,05,36,12.90
2019,07,05,05,37,12.90
2019,07,05,05,38,12.90
2019,07,05,05,39,12.90
2019,07,05,05,40,12.90
2019,07,05,05,41,12.80
2019,07,05,05,42,12.80
2019,07,05,05,43,12.80
2019,07,05,05,44,12.80
2019,07,05,05,45,12.80
2019,07,05,05,46,12.80
2019,07,05,05,47,12.80
2019,07,05,05,48,12.80
2019,07,05,05,49,12.80
2019,07,05,05,50,12.80
2019,07,05,05,51,12.80
2019,07,05,05,52,12.80
2019,07,05,05,53,12.80
2019,07,05,05,54,12.70
2019,07,05,05,55,12.70
2019,07,05,05,56,12.70
2019,07,05,05,57,12.70
2019,07,05,05,58,12.70
2019,07,05,05,59,12.70
2019,07,05,06,00,12.70
2019,07,05,06,01,12.70
2019,07,05,06,02,12.70
2019,07,05,06,03,12.70
2019,07,05,06,04,12.70
2019,07,05,06,05,12.70
2019,07,05,06,06,12.70
2019,07,05,06,07,12.70
2019,07,05,06,08,12.70
2019,07,05,06,09,12.70
2019,07,05,06,10,12.70
2019,07,05,06,11,12.70
2019,07,05,06,12,12.60
2019,07,05,06,13,12.60
2019,07,05,06,14,12.60
2019,07,05,06,15,12.60
2019,07,05,06,16,12.60
2019,07,05,06,17,12.60
2019,07,05,06,18,12.60
2019,07,05,06,19,12.60
2019,07,05,06,20,12.70
2019,07,05,06,21,12.70
2019,07,05,06,22,12.70
2019,07,05,06,23,12.70
2019,07,05,06,24,12.70
2019,07,05,06,25,12.70
2019,07,05,06,26,12.70
2019,07,05,06,27,12.80
2019,07,05,06,28,12.80
2019,07,05,06,29,12.80
2019,07,05,06,30,12.90
2019,07,05,06,31,12.90
2019,07,05,06,32,13.00
2019,07,05,06,33,13.00
2019,07,05,06,34,13.10
2019,07,05,06,35,13.10
2019,07,05,06,36,13.20
2019,07,05,06,37,13.20
2019,07,05,06,38,13.20
2019,07,05,06,39,13.30
2019,07,05,06,40,13.30
2019,07,05,06,41,13.30
2019,07,05,06,42,13.40
2019,07,05,06,43,13.40
2019,07,05,06,44,13.40
2019,07,05,06,45,13.50
2019,07,05,06,46,13.50
2019,07,05,06,47,13.60
2019,07,05,06,48,13.60
2019,07,05,06,49,13.60
2019,07,05,06,50,13.60
2019,07,05,06,51,13.60
2019,07,05,06,52,13.70
2019,07,05,06,53,13.70
2019,07,05,06,54,13.70
2019,07,05,06,55,13.70
2019,07,05,06,56,13.80
2019,07,05,06,57,13.80
2019,07,05,06,58,13.80
2019,07,05,06,59,13.80
2019,07,05,07,00,13.80
2019,07,05,07,01,13.90
2019,07,05,07,02,13.90
2019,07,05,07,03,13.90
2019,07,05,07,04,13.90
2019,07,05,07,05,14.00
2019,07,05,07,06,14.00
2019,07,05,07,07,14.10
2019,07,05,07,08,14.10
2019,07,05,07,09,14.10
2019,07,05,07,10,14.20
2019,07,05,07,11,14.20
2019,07,05,07,12,14.20
2019,07,05,07,13,14.30
2019,07,05,07,14,14.30
2019,07,05,07,15,14.40
2019,07,05,07,16,14.40
2019,07,05,07,17,14.40
2019,07,05,07,18,14.50
2019,07,05,07,19,14.60
2019,07,05,07,20,14.60
2019,07,05,07,21,14.60
2019,07,05,07,22,14.70
2019,07,05,07,23,14.70
2019,07,05,07,24,14.70
2019,07,05,07,25,14.80
2019,07,05,07,26,14.80
2019,07,05,07,27,14.80
2019,07,05,07,28,14.90
2019,07,05,07,29,14.90
2019,07,05,07,30,14.90
2019,07,05,07,31,14.90
2019,07,05,07,32,15.00
2019,07,05,07,33,15.00
2019,07,05,07,34,15.10
2019,07,05,07,35,15.10
2019,07,05,07,36,15.10
2019,07,05,07,37,15.10
2019,07,05,07,38,15.10
2019,07,05,07,39,15.20
2019,07,05,07,40,15.20
2019,07,05,07,41,15.20
2019,07,05,07,42,15.20
2019,07,05,07,43,15.20
2019,07,05,07,44,15.30
2019,07,05,07,45,15.30
2019,07,05,07,46,15.30
2019,07,05,07,47,15.30
2019,07,05,07,48,15.40
2019,07,05,07,49,15.40
2019,07,05,07,50,15.40
2019,07,05,07,51,15.40
2019,07,05,07,52,15.50
2019,07,05,07,53,15.50
2019,07,05,07,54,15.50
2019,07,05,07,55,15.60
2019,07,05,07,56,15.60
2019,07,05,07,57,15.60
2019,07,05,07,58,15.60
2019,07,05,07,59,15.60
2019,07,05,08,00,15.70
2019,07,05,08,01,15.70
2019,07,05,08,02,15.70
2019,07,05,08,03,15.70
2019,07,05,08,04,15.70
2019,07,05,08,05,15.70
2019,07,05,08,06,15.70
2019,07,05,08,07,15.70
2019,07,05,08,08,15.80
2019,07,05,08,09,15.80
2019,07,05,08,10,15.80
2019,07,05,08,11,15.80
2019,07,05,08,12,15.80
2019,07,05,08,13,15.80
2019,07,05,08,14,15.80
2019,07,05,08,15,15.80
2019,07,05,08,16,15.80
2019,07,05,08,17,15.90
2019,07,05,08,18,15.90
2019,07,05,08,19,15.90
2019,07,05,08,20,15.90
2019,07,05,08,21,15.90
2019,07,05,08,22,15.90
2019,07,05,08,23,15.90
2019,07,05,08,24,15.90
2019,07,05,08,25,16.00
2019,07,05,08,26,16.00
2019,07,05,08,27,16.00
2019,07,05,08,28,16.10
2019,07,05,08,29,16.10
2019,07,05,08,30,16.10
2019,07,05,08,31,16.10
2019,07,05,08,32,16.10
2019,07,05,08,33,16.20
2019,07,05,08,34,16.20
2019,07,05,08,35,16.20
2019,07,05,08,36,16.20
2019,07,05,08,37,16.20
2019,07,05,08,38,16.30
2019,07,05,08,39,16.30
2019,07,05,08,40,16.30
2019,07,05,08,41,16.30
2019,07,05,08,42,16.30
2019,07,05,08,43,16.30
2019,07,05,08,44,16.30
2019,07,05,08,45,16.30
2019,07,05,08,46,16.30
2019,07,05,08,47,16.40
2019,07,05,08,48,16.40
2019,07,05,08,49,16.40
2019,07,05,08,50,16.40
2019,07,05,08,51,16.40
2019,07,05,08,52,16.40
2019,07,05,08,53,16.40
2019,07,05,08,54,16.40
2019,07,05,08,55,16.40
2019,07,05,08,56,16.40
2019,07,05,08,57,16.40
2019,07,05,08,58,16.40
2019,07,05,08,59,16.50
2019,07,05,09,00,16.50
2019,07,05,09,01,16.50
2019,07,05,09,02,16.50
2019,07,05,09,03,16.60
2019,07,05,09,04,16.60
2019,07,05,09,05,16.60
2019,07,05,09,06,16.70
2019,07,05,09,07,16.70
2019,07,05,09,08,16.70
2019,07,05,09,09,16.80
2019,07,05,09,10,16.80
2019,07,05,09,11,16.90
2019,07,05,09,12,16.90
2019,07,05,09,13,17.00
2019,07,05,09,14,17.10
2019,07,05,09,15,17.10
2019,07,05,09,16,17.20
2019,07,05,09,17,17.20
2019,07,05,09,18,17.20
2019,07,05,09,19,17.30
2019,07,05,09,20,17.30
2019,07,05,09,21,17.40
2019,07,05,09,22,17.50
2019,07,05,09,23,17.50
2019,07,05,09,24,17.60
2019,07,05,09,25,17.70
2019,07,05,09,26,17.70
2019,07,05,09,27,17.80
2019,07,05,09,28,17.80
2019,07,05,09,29,17.80
2019,07,05,09,30,17.80
2019,07,05,09,31,17.90
2019,07,05,09,32,17.90
2019,07,05,09,33,17.90
2019,07,05,09,34,17.90
2019,07,05,09,35,17.90
2019,07,05,09,36,17.90
2019,07,05,09,37,18.00
2019,07,05,09,38,18.00
2019,07,05,09,39,18.10
2019,07,05,09,40,18.10
2019,07,05,09,41,18.10
2019,07,05,09,42,18.10
2019,07,05,09,43,18.20
2019,07,05,09,44,18.20
2019,07,05,09,45,18.20
2019,07,05,09,46,18.20
2019,07,05,09,47,18.20
2019,07,05,09,48,18.20
2019,07,05,09,49,18.30
2019,07,05,09,50,18.30
2019,07,05,09,51,18.30
2019,07,05,09,52,18.40
2019,07,05,09,53,18.40
2019,07,05,09,54,18.50
2019,07,05,09,55,18.50
2019,07,05,09,56,18.60
2019,07,05,09,57,18.60
2019,07,05,09,58,18.70
2019,07,05,09,59,18.70
2019,07,05,10,00,18.80
2019,07,05,10,01,18.80
2019,07,05,10,02,18.90
2019,07,05,10,03,18.90
2019,07,05,10,04,19.00
2019,07,05,10,05,19.10
2019,07,05,10,06,19.10
2019,07,05,10,07,19.20
2019,07,05,10,08,19.20
2019,07,05,10,09,19.30
2019,07,05,10,10,19.30
2019,07,05,10,11,19.40
2019,07,05,10,12,19.40
2019,07,05,10,13,19.50
2019,07,05,10,14,19.50
2019,07,05,10,15,19.60
2019,07,05,10,16,19.70
2019,07,05,10,17,19.80
2019,07,05,10,18,19.80
2019,07,05,10,19,19.80
2019,07,05,10,20,19.80
2019,07,05,10,21,19.90
2019,07,05,10,22,19.90
2019,07,05,10,23,20.00
2019,07,05,10,24,20.00
2019,07,05,10,25,20.10
2019,07,05,10,26,20.10
2019,07,05,10,27,20.20
2019,07,05,10,28,20.20
2019,07,05,10,29,20.30
2019,07,05,10,30,20.30
2019,07,05,10,31,20.40
2019,07,05,10,32,20.40
2019,07,05,10,33,20.40
2019,07,05,10,34,20.40
2019,07,05,10,35,20.40
2019,07,05,10,36,20.40
2019,07,05,10,37,20.40
2019,07,05,10,38,20.40
2019,07,05,10,39,20.40
2019,07,05,10,40,20.40
2019,07,05,10,41,20.30
2019,07,05,10,42,20.40
2019,07,05,10,43,20.40
2019,07,05,10,44,20.40
2019,07,05,10,45,20.40
2019,07,05,10,46,20.40
2019,07,05,10,47,20.40
2019,07,05,10,48,20.40
2019,07,05,10,49,20.40
2019,07,05,10,50,20.40
2019,07,05,10,51,20.40
2019,07,05,10,52,20.40
2019,07,05,10,53,20.40
2019,07,05,10,54,20.40
2019,07,05,10,55,20.40
2019,07,05,10,56,20.40
2019,07,05,10,57,20.40
2019,07,05,10,58,20.40
2019,07,05,10,59,20.40
2019,07,05,11,00,20.50
2019,07,05,11,01,20.60
2019,07,05,11,02,20.60
2019,07,05,11,03,20.70
2019,07,05,11,04,20.80
2019,07,05,11,05,20.80
2019,07,05,11,06,20.80
2019,07,05,11,07,20.90
2019,07,05,11,08,20.90
2019,07,05,11,09,21.00
2019,07,05,11,10,21.10
2019,07,05,11,11,21.10
2019,07,05,11,12,21.20
2019,07,05,11,13,21.30
2019,07,05,11,14,21.30
2019,07,05,11,15,21.30
2019,07,05,11,16,21.40
2019,07,05,11,17,21.50
2019,07,05,11,18,21.60
2019,07,05,11,19,21.70
2019,07,05,11,20,21.80
2019,07,05,11,21,21.90
2019,07,05,11,22,22.10
2019,07,05,11,23,22.20
2019,07,05,11,24,22.30
2019,07,05,11,25,22.30
2019,07,05,11,26,22.40
2019,07,05,11,27,22.40
2019,07,05,11,28,22.50
2019,07,05,11,29,22.60
2019,07,05,11,30,22.60
2019,07,05,11,31,22.60
2019,07,05,11,32,22.60
2019,07,05,11,33,22.70
2019,07,05,11,34,22.70
2019,07,05,11,35,22.70
2019,07,05,11,36,22.80
2019,07,05,11,37,22.90
2019,07,05,11,38,23.00
2019,07,05,11,39,23.00
2019,07,05,11,40,23.10
2019,07,05,11,41,23.10
2019,07,05,11,42,23.20
2019,07,05,11,43,23.20
2019,07,05,11,44,23.20
2019,07,05,11,45,23.20
2019,07,05,11,46,23.20
2019,07,05,11,47,23.30
2019,07,05,11,48,23.30
2019,07,05,11,49,23.40
2019,07,05,11,50,23.40
2019,07,05,11,51,23.50
2019,07,05,11,52,23.50
2019,07,05,11,53,23.50
2019,07,05,11,54,23.50
2019,07,05,11,55,23.40
2019,07,05,11,56,23.30
2019,07,05,11,57,23.30
2019,07,05,11,58,23.20
2019,07,05,11,59,23.20
2019,07,05,12,00,23.20
2019,07,05,12,01,23.20
2019,07,05,12,02,23.20
2019,07,05,12,03,23.20
2019,07,05,12,04,23.20
2019,07,05,12,05,23.20
2019,07,05,12,06,23.20
2019,07,05,12,07,23.20
2019,07,05,12,08,23.30
2019,07,05,12,09,23.30
2019,07,05,12,10,23.40
2019,07,05,12,11,23.50
2019,07,05,12,12,23.60
2019,07,05,12,13,23.60
2019,07,05,12,14,23.70
2019,07,05,12,15,23.70
2019,07,05,12,16,23.80
2019,07,05,12,17,23.80
2019,07,05,12,18,23.70
2019,07,05,12,19,23.70
2019,07,05,12,20,23.70
2019,07,05,12,21,23.70
2019,07,05,12,22,23.70
2019,07,05,12,23,23.70
2019,07,05,12,24,23.70
2019,07,05,12,25,23.70
2019,07,05,12,26,23.70
2019,07,05,12,27,23.70
2019,07,05,12,28,23.70
2019,07,05,12,29,23.70
2019,07,05,12,30,23.80
2019,07,05,12,31,23.80
2019,07,05,12,32,23.80
2019,07,05,12,33,23.80
2019,07,05,12,34,23.90
2019,07,05,12,35,24.00
2019,07,05,12,36,24.10
2019,07,05,12,37,24.20
2019,07,05,12,38,24.30
2019,07,05,12,39,24.30
2019,07,05,12,40,24.40
2019,07,05,12,41,24.40
2019,07,05,12,42,24.50
2019,07,05,12,43,24.60
2019,07,05,12,44,24.60
2019,07,05,12,45,24.60
2019,07,05,12,46,24.60
2019,07,05,12,47,24.60
2019,07,05,12,48,24.60
2019,07,05,12,49,24.60
2019,07,05,12,50,24.60
2019,07,05,12,51,24.60
2019,07,05,12,52,24.60
2019,07,05,12,53,24.60
2019,07,05,12,54,24.60
2019,07,05,12,55,24.60
2019,07,05,12,56,24.70
2019,07,05,12,57,24.70
2019,07,05,12,58,24.80
2019,07,05,12,59,24.80
2019,07,05,13,00,24.70
2019,07,05,13,01,24.80
2019,07,05,13,02,24.80
2019,07,05,13,03,24.80
2019,07,05,13,04,24.80
2019,07,05,13,05,24.80
2019,07,05,13,06,24.70
2019,07,05,13,07,24.70
2019,07,05,13,08,24.70
2019,07,05,13,09,24.70
2019,07,05,13,10,24.70
2019,07,05,13,11,24.60
2019,07,05,13,12,24.60
2019,07,05,13,13,24.60
2019,07,05,13,14,24.60
2019,07,05,13,15,24.60
2019,07,05,13,16,24.60
2019,07,05,13,17,24.60
2019,07,05,13,18,24.60
2019,07,05,13,19,24.50
2019,07,05,13,20,24.40
2019,07,05,13,21,24.40
2019,07,05,13,22,24.40
2019,07,05,13,23,24.30
2019,07,05,13,24,24.30
2019,07,05,13,25,24.30
2019,07,05,13,26,24.30
2019,07,05,13,27,24.40
2019,07,05,13,28,24.50
2019,07,05,13,29,24.50
2019,07,05,13,30,24.60
2019,07,05,13,31,24.60
2019,07,05,13,32,24.60
2019,07,05,13,33,24.70
2019,07,05,13,34,24.70
2019,07,05,13,35,24.60
2019,07,05,13,36,24.60
2019,07,05,13,37,24.60
2019,07,05,13,38,24.60
2019,07,05,13,39,24.60
2019,07,05,13,40,24.60
2019,07,05,13,41,24.60
2019,07,05,13,42,24.60
2019,07,05,13,43,24.70
2019,07,05,13,44,24.70
2019,07,05,13,45,24.80
2019,07,05,13,46,24.80
2019,07,05,13,47,24.80
2019,07,05,13,48,24.80
2019,07,05,13,49,24.80
2019,07,05,13,50,24.90
2019,07,05,13,51,24.80
2019,07,05,13,52,24.80
2019,07,05,13,53,24.80
2019,07,05,13,54,24.80
2019,07,05,13,55,24.80
2019,07,05,13,56,24.80
2019,07,05,13,57,24.70
2019,07,05,13,58,24.60
2019,07,05,13,59,24.60
2019,07,05,14,00,24.50
2019,07,05,14,01,24.50
2019,07,05,14,02,24.50
2019,07,05,14,03,24.40
2019,07,05,14,04,24.40
2019,07,05,14,05,24.30
2019,07,05,14,06,24.20
2019,07,05,14,07,24.20
2019,07,05,14,08,24.10
2019,07,05,14,09,24.00
2019,07,05,14,10,24.00
2019,07,05,14,11,23.90
2019,07,05,14,12,24.00
2019,07,05,14,13,24.00
2019,07,05,14,14,24.10
2019,07,05,14,15,24.20
2019,07,05,14,16,24.30
2019,07,05,14,17,24.30
2019,07,05,14,18,24.40
2019,07,05,14,19,24.40
2019,07,05,14,20,24.50
2019,07,05,14,21,24.60
2019,07,05,14,22,24.70
2019,07,05,14,23,24.80
2019,07,05,14,24,24.80
2019,07,05,14,25,24.90
2019,07,05,14,26,24.90
2019,07,05,14,27,25.00
2019,07,05,14,28,25.00
2019,07,05,14,29,25.10
2019,07,05,14,30,25.10
2019,07,05,14,31,25.10
2019,07,05,14,32,25.10
2019,07,05,14,33,25.10
2019,07,05,14,34,25.00
2019,07,05,14,35,25.00
2019,07,05,14,36,24.90
2019,07,05,14,37,24.90
2019,07,05,14,38,24.80
2019,07,05,14,39,24.80
2019,07,05,14,40,24.80
2019,07,05,14,41,24.80
2019,07,05,14,42,24.80
2019,07,05,14,43,24.80
2019,07,05,14,44,24.80
2019,07,05,14,45,24.90
2019,07,05,14,46,24.90
2019,07,05,14,47,25.00
2019,07,05,14,48,25.00
2019,07,05,14,49,25.10
2019,07,05,14,50,25.20
2019,07,05,14,51,25.20
2019,07,05,14,52,25.10
2019,07,05,14,53,25.10
2019,07,05,14,54,25.10
2019,07,05,14,55,25.10
2019,07,05,14,56,25.20
2019,07,05,14,57,25.20
2019,07,05,14,58,25.30
2019,07,05,14,59,25.40
2019,07,05,15,00,25.50
2019,07,05,15,01,25.60
2019,07,05,15,02,25.70
2019,07,05,15,03,25.70
2019,07,05,15,04,25.70
2019,07,05,15,05,25.60
2019,07,05,15,06,25.60
2019,07,05,15,07,25.60
2019,07,05,15,08,25.50
2019,07,05,15,09,25.50
2019,07,05,15,10,25.50
2019,07,05,15,11,25.50
2019,07,05,15,12,25.50
2019,07,05,15,13,25.50
2019,07,05,15,14,25.50
2019,07,05,15,15,25.60
2019,07,05,15,16,25.60
2019,07,05,15,17,25.60
2019,07,05,15,18,25.70
2019,07,05,15,19,25.70
2019,07,05,15,20,25.80
2019,07,05,15,21,25.80
2019,07,05,15,22,25.80
2019,07,05,15,23,25.80
2019,07,05,15,24,25.80
2019,07,05,15,25,25.80
2019,07,05,15,26,25.80
2019,07,05,15,27,25.80
2019,07,05,15,28,25.80
2019,07,05,15,29,25.80
2019,07,05,15,30,25.90
2019,07,05,15,31,25.90
2019,07,05,15,32,25.80
2019,07,05,15,33,25.80
2019,07,05,15,34,25.80
2019,07,05,15,35,25.80
2019,07,05,15,36,25.80
2019,07,05,15,37,25.80
2019,07,05,15,38,25.80
2019,07,05,15,39,25.70
2019,07,05,15,40,25.70
2019,07,05,15,41,25.70
2019,07,05,15,42,25.70
2019,07,05,15,43,25.70
2019,07,05,15,44,25.70
2019,07,05,15,45,25.80
2019,07,05,15,46,25.80
2019,07,05,15,47,25.80
2019,07,05,15,48,25.80
2019,07,05,15,49,25.80
2019,07,05,15,50,25.90
2019,07,05,15,51,25.90
2019,07,05,15,52,26.00
2019,07,05,15,53,26.00
2019,07,05,15,54,26.00
2019,07,05,15,55,26.00
2019,07,05,15,56,25.90
2019,07,05,15,57,25.80
2019,07,05,15,58,25.70
2019,07,05,15,59,25.60
2019,07,05,16,00,25.60
2019,07,05,16,01,25.70
2019,07,05,16,02,25.80
2019,07,05,16,03,25.80
2019,07,05,16,04,25.80
2019,07,05,16,05,25.90
2019,07,05,16,06,25.90
2019,07,05,16,07,25.90
2019,07,05,16,08,25.90
2019,07,05,16,09,25.90
2019,07,05,16,10,25.90
2019,07,05,16,11,25.90
2019,07,05,16,12,26.00
2019,07,05,16,13,26.00
2019,07,05,16,14,26.00
2019,07,05,16,15,26.00
2019,07,05,16,16,26.00
2019,07,05,16,17,26.00
2019,07,05,16,18,26.00
2019,07,05,16,19,26.00
2019,07,05,16,20,26.10
2019,07,05,16,21,26.10
2019,07,05,16,22,26.10
2019,07,05,16,23,26.10
2019,07,05,16,24,26.10
2019,07,05,16,25,26.20
2019,07,05,16,26,26.20
2019,07,05,16,27,26.30
2019,07,05,16,28,26.30
2019,07,05,16,29,26.40
2019,07,05,16,30,26.40
2019,07,05,16,31,26.30
2019,07,05,16,32,26.30
2019,07,05,16,33,26.30
2019,07,05,16,34,26.40
2019,07,05,16,35,26.50
2019,07,05,16,36,26.60
2019,07,05,16,37,26.60
2019,07,05,16,38,26.70
2019,07,05,16,39,26.70
2019,07,05,16,40,26.70
2019,07,05,16,41,26.60
2019,07,05,16,42,26.50
2019,07,05,16,43,26.40
2019,07,05,16,44,26.40
2019,07,05,16,45,26.50
2019,07,05,16,46,26.60
2019,07,05,16,47,26.70
2019,07,05,16,48,26.70
2019,07,05,16,49,26.80
2019,07,05,16,50,26.80
2019,07,05,16,51,26.80
2019,07,05,16,52,26.80
2019,07,05,16,53,26.80
2019,07,05,16,54,26.80
2019,07,05,16,55,26.80
2019,07,05,16,56,26.80
2019,07,05,16,57,26.80
2019,07,05,16,58,26.80
2019,07,05,16,59,26.90
2019,07,05,17,00,26.90
2019,07,05,17,01,27.00
2019,07,05,17,02,27.00
2019,07,05,17,03,27.00
2019,07,05,17,04,27.10
2019,07,05,17,05,27.10
2019,07,05,17,06,27.20
2019,07,05,17,07,27.20
2019,07,05,17,08,27.10
2019,07,05,17,09,27.00
2019,07,05,17,10,26.90
2019,07,05,17,11,26.90
2019,07,05,17,12,26.80
2019,07,05,17,13,26.80
2019,07,05,17,14,26.80
2019,07,05,17,15,26.80
2019,07,05,17,16,26.90
2019,07,05,17,17,26.90
2019,07,05,17,18,26.90
2019,07,05,17,19,26.90